Flag for Chile

Past Weather in Santiago, Chile — Yesterday and Last 2 Weeks

Now
37 °F

Chilly.


Feels Like: 37 °F
Forecast: 57 / 45 °F
Wind: 2 mph from North

Location: Pudahuel

Current Time: Jul 11, 2020 at 9:30:43 am

Latest Report: Jul 11, 2020 at 9:00 am


Visibility: 1 mi

Pressure: 30.12 "Hg (28.05 "Hg at 576m altitude)

Humidity: 100%

Dew Point: 37 °F

Location of SantiagoLocation

Past Weather in Santiago — Graph

°F

Santiago Temperature Yesterday

Maximum temperature yesterday: 59 °F (at 3:00 pm)
Minimum temperature yesterday: 45 °F (at 2:00 am)
Average temperature yesterday: 50 °F

High & Low Weather Summary for the Past Weeks

 TemperatureHumidityPressure
High63 °F (Jul 2, 5:00 pm)100% (Jun 29, 10:00 am)30.30 "Hg (Jun 29, 10:00 am)
Low34 °F (Jun 30, 7:22 am)41% (Jun 26, 2:00 pm)29.80 "Hg (Jun 29, 2:00 am)
Average47 °F83%30.10 "Hg
* Reported Jun 26 8:00 am — Jul 11 8:00 am, Santiago. Weather by CustomWeather, © 2020

Note: Actual official high and low records may vary slightly from our data, if they occured in-between our weather recording intervals... More about our weather records

Santiago Weather History for the Previous 24 Hours

Scroll right to see more
 ConditionsComfort  
Time TempWeatherWind HumidityBarometerVisibility
8:00 am
Sat, Jul 11
39 °FChilly.1 mph100%30.12 "Hg1 mi
7:08 am39 °FChilly.No wind100%30.12 "Hg1 mi
7:00 am41 °FFog.No wind100%30.12 "Hg1 mi
6:00 am43 °FFog.1 mph100%30.12 "Hg1 mi
5:00 am41 °FFog.5 mph100%30.12 "Hg1 mi
4:23 am41 °FFog.2 mph100%30.12 "Hg2 mi
4:00 am41 °FFog.5 mph100%30.12 "Hg2 mi
3:00 am45 °FFog.5 mph93%30.15 "Hg3 mi
2:00 am46 °FFog.7 mph93%30.12 "Hg2 mi
1:00 am45 °FFog.5 mph93%30.12 "Hg3 mi
12:00 am46 °FFog.2 mph93%30.12 "Hg3 mi
11:00 pm
Fri, Jul 10
46 °FFog.3 mph100%30.12 "Hg3 mi
10:00 pm48 °FClear.No wind94%30.15 "Hg4 mi
9:00 pm52 °FPassing clouds.No wind82%30.15 "Hg5 mi
8:00 pm54 °FPartly cloudy.No wind82%30.15 "Hg5 mi
7:00 pm54 °FPartly cloudy.3 mph82%30.15 "HgN/A
6:00 pm55 °FPartly cloudy.2 mph77%30.15 "HgN/A
5:00 pm57 °FPartly sunny.5 mph67%30.15 "HgN/A
4:00 pm57 °FBroken clouds.7 mph67%30.12 "HgN/A
3:00 pm59 °FPartly sunny.10 mph68%30.12 "HgN/A
2:00 pm57 °FPartly sunny.7 mph63%30.12 "HgN/A
1:00 pm55 °FScattered clouds.8 mph67%30.12 "HgN/A
12:00 pm54 °FBroken clouds.7 mph72%30.15 "Hg5 mi
11:00 am50 °FBroken clouds.6 mph82%30.18 "Hg4 mi
10:00 am48 °FPartly sunny.5 mph87%30.15 "Hg3 mi
9:00 am45 °FFog.2 mph93%30.15 "Hg2 mi
Weather by CustomWeather, © 2020

See weather overview